sat.trackr.live / text

‹ back to catalog

BUZZER-1

NORAD 62609 · 2025-009A

PAYLOAD ACTIVE UNKNOWN

§ Identity

Operator
Country
FR
Launch date
2025-01-14
Launch site
AFWTR
Launch vehicle
Mass (kg)
RCS (m²)

External: N2YO · Heavens-Above · Gunter

§ Orbital elements

Epoch: 2026-05-25T03:58:16.308192Z

Period
94.65 min
Inclination
97.3926°
Eccentricity
0.0009059
Mean motion
15.21365566 rev/d
Perigee alt
495.5 km
Apogee alt
508.0 km
Semi-major
6,879.9 km
B*
2.9348e-4
RAAN
223.8208°
Arg perigee
63.4363°
Mean anomaly
296.7801°
Rev number
7,519

§ Raw data

BUZZER-11 62609U 25009A   26145.16546653  .00006516  00000+0  29348-3 0  99992 62609  97.3926 223.8208 0009059  63.4363 296.7801 15.21365566 75199

JSON: /api/v1/satellites/62609 · /tle

For live sub-satellite position, see the globe view (requires WebGL).

§ Visibility from observer

Set your observer location to see the next 7 days of passes ≥ 10°. The values pass through the URL so the page stays shareable.

No JS? Fill the form by hand. The geolocation button needs JavaScript.

§ Radio — SatNOGS DB

ModeDescriptionDownlinkUplink
FM Telemetry 401.882 MHz

1 transmitter · refreshed weekly from db.satnogs.org